Location: Apeadero de Los Molinos-Guadarrama
(40.7091°N, 4.0689°W)
Time: 13:09:29
(UTC+00:00)

Meteor 2-6 Rocket - Pass Details

Date: 14 May 2021
Orbit: 807 x 913 km, 81.3° (Epoch: 18 June)

Event Time Altitude Azimuth Distance (km) Brightness Sun altitude
Exits shadow 21:24:41 11° 197° (SSW) 2,314 6.2 -18.8°
Maximum altitude 21:29:51 70° 281° (W) 875 4.4 -19.5°
Drops below altitude 10° 21:35:23 10° 5° (N) 2,459 7.2 -20.1°
Sets 21:37:51 0° 8° (N) 3,413 8.0 -20.4°
